Location: Unspecified
(0.0000°N, 0.0000°E)
Time: 10:56:02
(UTC+00:00)

Amateur Radio Satellites - All Passes

Search period start: 23 September 2017 10:26
Search period end: 24 September 2017 10:26
Location: Unspecified, 0.0000°N, 0.0000°E

Satellite Date Start Highest point End Downlink Frequencies (MHz)
Time Altitude Azimuth
QB50P2 23 Sep 10:31:44 10:32:07 10° 78° (ENE) 10:32:30 145.880/145.840
JUGNU 23 Sep 10:46:30 10:50:27 18° 166° (SSE) 10:54:25 437.505
LO-87 23 Sep 10:58:52 11:02:27 63° 280° (W) 11:06:02 145.935 - 145.965
ESTCUBE 1 23 Sep 11:02:38 11:07:04 70° 101° (E) 11:11:31 437.505/2401.250
NANOSAT C BR1 23 Sep 11:04:45 11:08:12 25° 78° (ENE) 11:11:39 145.865
AIST 2D 23 Sep 11:06:51 11:10:19 54° 259° (W) 11:13:46 435.315
YUBILEINY 23 Sep 11:14:49 11:23:28 64° 93° (E) 11:32:02 435.215
DUCHIFAT 1 23 Sep 11:32:54 11:36:59 58° 79° (ENE) 11:41:04 145.980
VELOX 1 23 Sep 11:35:25 11:38:44 21° 102° (ESE) 11:42:04 145.980
SPROUT 23 Sep 11:38:46 11:42:41 35° 102° (ESE) 11:46:37 437.525
POLYITAN 1 23 Sep 11:45:39 11:49:47 62° 258° (WSW) 11:53:55 437.675
SO-50 23 Sep 11:46:00 11:50:24 48° 112° (ESE) 11:54:44 436.795
EO-79 23 Sep 11:50:11 11:54:15 53° 258° (WSW) 11:58:19 145.935-145.965
O/OREOS (USA 219) 23 Sep 11:54:53 11:57:11 14° 75° (ENE) 11:59:29 437.305
QB50P2 23 Sep 12:03:59 12:07:38 29° 258° (WSW) 12:11:16 145.880/145.840
M-CUBED/EXP-1 PRIME 23 Sep 12:04:20 12:08:55 60° 75° (ENE) 12:13:18 437.505
SRMSAT 23 Sep 12:10:57 12:12:47 11° 173° (S) 12:14:37 437.500
BUGSAT 1 23 Sep 12:11:05 12:14:44 34° 78° (ENE) 12:18:20 437.445
Gurwin Techsat 1B 23 Sep 12:28:12 12:31:01 15° 77° (ENE) 12:33:49 435.225
50 SAT 23 Sep 12:31:10 12:34:01 27° 102° (ESE) 12:36:54 437.505
JUGNU 23 Sep 12:34:16 12:39:53 41° 160° (SSE) 12:45:32 437.505
UKube-1 23 Sep 12:40:53 12:43:42 17° 103° (ESE) 12:46:31 .
NANOSAT C BR1 23 Sep 12:42:12 12:43:38 12° 258° (WSW) 12:45:04 145.865
DX 1 23 Sep 12:45:25 12:49:24 36° 102° (ESE) 12:53:24 434.975-435.025
Oscar 19 23 Sep 12:45:39 12:50:32 41° 77° (ENE) 12:55:22 437.125/150
PCSat 23 Sep 13:10:18 13:15:36 59° 289° (WNW) 13:20:54 145.827
VELOX 1 23 Sep 13:12:10 13:14:54 16° 282° (WNW) 13:17:40 145.980
YUBILEINY 23 Sep 13:15:38 13:19:50 14° 273° (W) 13:24:03 435.215
O/OREOS (USA 219) 23 Sep 13:32:30 13:36:18 26° 256° (WSW) 13:40:07 437.305
RS-15 23 Sep 13:40:31 13:45:52 14° 65° (ENE) 13:51:06 29.354- 29.394
MOZHAYETS 4 23 Sep 13:56:15 13:57:52 12° 102° (ESE) 13:59:27
SRMSAT 23 Sep 13:58:26 14:02:50 21° 164° (SSE) 14:07:13 437.500
Gurwin Techsat 1B 23 Sep 14:05:52 14:10:41 35° 257° (WSW) 14:15:29 435.225
UKube-1 23 Sep 14:16:23 14:19:26 19° 282° (WNW) 14:22:32 .
ITUPSAT 1 23 Sep 14:18:29 14:22:26 26° 103° (ESE) 14:26:23 437.325
JUGNU 23 Sep 14:23:00 14:28:59 73° 339° (NNW) 14:34:59 437.505
Oscar 19 23 Sep 14:27:44 14:29:32 12° 257° (WSW) 14:31:20 437.125/150
AO-7 23 Sep 14:45:45 14:53:53 55° 74° (ENE) 15:01:56 .
BEESAT 23 Sep 14:54:36 14:59:22 82° 102° (ESE) 15:04:10 436.000
ITAMSAT 1 23 Sep 15:28:20 15:33:30 69° 257° (WSW) 15:38:37 435.822/435.867
MOZHAYETS 4 23 Sep 15:30:39 15:34:44 32° 282° (WNW) 15:38:49
SRMSAT 23 Sep 15:46:33 15:52:21 50° 159° (SSE) 15:58:06 437.500
RS-15 23 Sep 15:46:50 15:58:10 81° 250° (WSW) 16:09:05 29.354- 29.394
Tancredo 1 23 Sep 15:49:22 15:51:52 35° 126° (SE) 15:54:22 437.200
DOVE 4 23 Sep 15:53:19 15:54:36 11° 80° (E) 15:55:53 437.250
KKS-1 23 Sep 15:54:47 15:57:41 17° 103° (ESE) 16:00:35 437.445
CUBESAT XI-V 23 Sep 15:55:18 15:59:51 72° 101° (ESE) 16:04:25 437.345
ITUPSAT 1 23 Sep 15:56:59 15:59:58 17° 283° (WNW) 16:02:58 437.325
JUGNU 23 Sep 16:13:08 16:18:11 28° 342° (NNW) 16:23:13 437.505
STARS 23 Sep 16:21:31 16:23:10 12° 103° (ESE) 16:24:50 437.465
AO-7 23 Sep 16:40:42 16:46:12 19° 253° (WSW) 16:51:44 .
nSIGHT-1 23 Sep 16:44:42 16:46:48 16° 126° (SE) 16:48:53 .
BEESAT 3 23 Sep 17:01:51 17:05:01 24° 112° (ESE) 17:08:13 437.485
CUTE-I 23 Sep 17:14:37 17:18:54 25° 77° (ENE) 17:23:07 437.470
XW-2D 23 Sep 17:15:16 17:18:33 27° 79° (ENE) 17:21:49 145.860 - 145.880
XW-2B 23 Sep 17:27:16 17:30:52 40° 79° (E) 17:34:28 145.730 - 145.750
XW-2F 23 Sep 17:27:34 17:31:08 38° 79° (ENE) 17:34:41 145.980 - 146.000
DOVE 4 23 Sep 17:27:40 17:32:07 35° 257° (WSW) 17:36:18 437.250
KKS-1 23 Sep 17:30:37 17:33:57 21° 282° (WNW) 17:37:19 437.445
SRMSAT 23 Sep 17:35:41 17:41:34 59° 339° (NNW) 17:47:24 437.500
ISS 23 Sep 17:39:40 17:42:54 71° 304° (NW) 17:46:08 437.550
XW-2C 23 Sep 17:48:22 17:52:10 83° 258° (WSW) 17:56:00 145.795 - 145.815
NUDT-PHONESAT 23 Sep 17:51:49 17:55:31 69° 79° (E) 17:59:13 437.300
STARS 23 Sep 17:55:24 17:59:13 29° 282° (WNW) 18:03:03 437.465
LilacSat-2 23 Sep 18:00:22 18:04:04 47° 259° (WSW) 18:07:47 437.200
JUGNU 23 Sep 18:05:02 18:07:51 13° 349° (N) 18:10:39 437.505
CUTE 1.7 + AOD 2 23 Sep 18:16:00 18:19:38 27° 79° (ENE) 18:23:14 437.475
HO-68 23 Sep 18:18:18 18:24:55 41° 75° (ENE) 18:31:29 435.675
KAITUO 1B 23 Sep 18:20:00 18:23:29 36° 259° (W) 18:26:59 145.475/437.950
nSIGHT-1 23 Sep 18:21:09 18:22:55 14° 306° (NW) 18:24:39 .
BEESAT 3 23 Sep 18:41:05 18:42:19 11° 293° (WNW) 18:43:33 437.485
CUBEBUG 2 23 Sep 18:42:25 18:45:57 27° 78° (ENE) 18:49:31 437.445
BEESAT 2 23 Sep 18:45:15 18:48:59 44° 292° (WNW) 18:52:45 435.950
UWE-3 23 Sep 18:50:36 18:53:23 17° 78° (ENE) 18:56:11 435.000/436.395/437.385
AO-85 23 Sep 18:52:40 18:56:26 33° 291° (WNW) 19:00:00 145.980
STRAND 1 23 Sep 18:54:27 18:59:31 60° 103° (ESE) 19:04:36 437.568
CUTE-I 23 Sep 18:54:41 18:58:39 21° 257° (WSW) 19:02:36 437.470
SEEDS 23 Sep 19:23:31 19:27:40 54° 258° (WSW) 19:31:49 437.485
SRMSAT 23 Sep 19:26:19 19:30:58 23° 343° (NNW) 19:35:35 437.500
Oscar 11 23 Sep 19:35:03 19:38:10 19° 78° (ENE) 19:41:18 .
AO-73 23 Sep 19:35:07 19:38:47 30° 78° (ENE) 19:42:30 145.935
ZACube-1 23 Sep 19:37:36 19:41:30 38° 78° (ENE) 19:45:27 437.345
XW-2A 23 Sep 19:43:58 19:47:00 31° 259° (W) 19:50:01 145.665 - 145.685
AAUSAT CUBESAT 2 23 Sep 19:46:55 19:51:05 72° 259° (WSW) 19:55:14 437.432
CUTE 1.7 + AOD 2 23 Sep 19:53:35 19:55:10 12° 258° (WSW) 19:56:46 437.475
HO-68 23 Sep 20:07:09 20:12:17 21° 255° (WSW) 20:17:26 435.675
FO-29 23 Sep 20:08:39 20:14:23 36° 105° (ESE) 20:20:45 435.910
CUBEBUG 2 23 Sep 20:22:01 20:22:18 10° 258° (WSW) 20:22:35 437.445
UWE-3 23 Sep 20:26:52 20:29:35 17° 259° (WSW) 20:32:19 435.000/436.395/437.385
Max Valier Satellite 23 Sep 20:49:52 20:52:38 20° 79° (ENE) 20:55:24 145.860
Oscar 11 23 Sep 21:11:12 21:14:02 17° 258° (WSW) 21:16:51 .
DELFI C3 23 Sep 21:17:11 21:21:11 88° 257° (WSW) 21:25:09 145.870
SRMSAT 23 Sep 21:18:46 21:20:52 12° 351° (N) 21:22:58 437.500
UNISAT 6 23 Sep 21:25:53 21:30:33 71° 102° (ESE) 21:35:12 437.425
JUGNU 23 Sep 21:45:27 21:48:08 13° 10° (N) 21:50:48 437.505
TIGRISAT 23 Sep 21:49:39 21:54:16 61° 282° (WNW) 21:58:52 435.000
EO-88 23 Sep 21:50:01 21:53:35 52° 258° (WSW) 21:57:09 145.990 - 145.960
FO-29 23 Sep 21:54:34 21:59:13 22° 280° (W) 22:04:17 435.910
NO-84 23 Sep 21:55:31 21:58:18 57° 58° (ENE) 22:01:13 435.350 FM
YUBILEINY 23 Sep 21:56:55 22:00:23 13° 87° (E) 22:03:51 435.215
Max Valier Satellite 23 Sep 22:25:25 22:26:11 11° 259° (WSW) 22:26:57 145.860
PRISM 23 Sep 22:26:37 22:30:15 32° 282° (WNW) 22:33:54 437.425
QB50P2 23 Sep 22:36:13 22:38:14 13° 102° (ESE) 22:40:14 145.880/145.840
LO-87 23 Sep 22:46:42 22:50:14 77° 78° (ENE) 22:53:44 145.935 - 145.965
AIST 2D 23 Sep 22:52:35 22:56:03 80° 101° (E) 22:59:32 435.315
NANOSAT C BR1 23 Sep 23:09:56 23:13:42 31° 102° (ESE) 23:17:29 145.865
ESTCUBE 1 23 Sep 23:16:35 23:21:07 74° 259° (W) 23:25:38 437.505/2401.250
JUGNU 23 Sep 23:32:52 23:37:47 27° 18° (NNE) 23:42:40 437.505
DUCHIFAT 1 23 Sep 23:37:56 23:42:10 71° 102° (ESE) 23:46:23 145.980
SPROUT 23 Sep 23:45:39 23:49:42 44° 78° (ENE) 23:53:42 437.525
VELOX 1 23 Sep 23:46:21 23:50:15 30° 78° (ENE) 23:54:06 145.980
YUBILEINY 23 Sep 23:48:04 23:56:45 70° 267° (W) 00:05:32 435.215
POLYITAN 1 23 Sep 23:51:43 23:55:51 51° 282° (WNW) 00:00:01 437.675
EO-79 23 Sep 23:56:05 00:00:08 43° 282° (WNW) 00:04:12 145.935-145.965
SO-50 23 Sep 23:58:07 00:02:47 89° 242° (WSW) 00:07:32 436.795
M-CUBED/EXP-1 PRIME 24 Sep 00:03:58 00:07:08 45° 107° (ESE) 00:10:25 437.505
PCSat 24 Sep 00:04:03 00:08:36 28° 71° (ENE) 00:13:11 145.827
O/OREOS (USA 219) 24 Sep 00:04:42 00:08:11 22° 105° (ESE) 00:11:40 437.305
QB50P2 24 Sep 00:10:15 00:13:43 24° 282° (WNW) 00:17:12 145.880/145.840
50 SAT 24 Sep 00:13:20 00:14:58 13° 79° (E) 00:16:37 437.505
BUGSAT 1 24 Sep 00:13:35 00:17:34 39° 102° (ESE) 00:21:32 437.445
UKube-1 24 Sep 00:48:43 00:52:04 22° 78° (ENE) 00:55:24 .
DX 1 24 Sep 00:54:48 00:59:02 50° 78° (ENE) 01:03:14 434.975-435.025
SRMSAT 24 Sep 00:58:11 01:01:26 15° 12° (NNE) 01:04:42 437.500
Gurwin Techsat 1B 24 Sep 01:04:25 01:09:24 42° 103° (ESE) 01:14:22 435.225
Oscar 19 24 Sep 01:19:02 01:24:09 76° 283° (WNW) 01:29:16 437.125/150
JUGNU 24 Sep 01:21:05 01:26:56 72° 21° (NNE) 01:32:46 437.505
RS-15 24 Sep 01:23:34 01:27:00 12° 113° (ESE) 01:30:27 29.354- 29.394
VELOX 1 24 Sep 01:25:01 01:26:23 11° 257° (WSW) 01:27:45 145.980
O/OREOS (USA 219) 24 Sep 01:44:48 01:47:18 15° 285° (WNW) 01:49:49 437.305
50 SAT 24 Sep 01:45:44 01:47:11 12° 258° (WSW) 01:48:40 437.505
PCSat 24 Sep 01:48:01 01:51:43 19° 250° (WSW) 01:55:27 145.827
MOZHAYETS 4 24 Sep 02:11:08 02:14:27 20° 78° (ENE) 02:17:46
UKube-1 24 Sep 02:25:23 02:27:49 15° 257° (WSW) 02:30:14 .
ITAMSAT 1 24 Sep 02:25:28 02:29:10 20° 103° (ESE) 02:32:53 435.822/435.867
ITUPSAT 1 24 Sep 02:40:03 02:44:39 49° 78° (ENE) 02:49:14 437.325
SRMSAT 24 Sep 02:45:52 02:51:07 33° 19° (NNE) 02:56:25 437.500
Gurwin Techsat 1B 24 Sep 02:47:04 02:49:03 12° 283° (WNW) 02:51:02 435.225
Tancredo 1 24 Sep 03:10:18 03:11:23 12° 54° (NE) 03:12:27 437.200
JUGNU 24 Sep 03:10:30 03:15:58 41° 200° (SSW) 03:21:27 437.505
AO-7 24 Sep 03:11:49 03:20:06 86° 104° (ESE) 03:28:27 .
BEESAT 24 Sep 03:16:36 03:21:13 51° 258° (WSW) 03:25:48 436.000
RS-15 24 Sep 03:27:23 03:39:14 86° 110° (ESE) 03:51:33 29.354- 29.394
MOZHAYETS 4 24 Sep 03:48:04 03:51:19 19° 258° (WSW) 03:54:35
ITAMSAT 1 24 Sep 04:04:06 04:08:20 26° 283° (WNW) 04:12:38 435.822/435.867
KKS-1 24 Sep 04:06:31 04:10:08 25° 78° (ENE) 04:13:44 437.445
DOVE 4 24 Sep 04:10:49 04:14:15 21° 103° (ESE) 04:17:49 437.250
CUBESAT XI-V 24 Sep 04:13:25 04:18:05 64° 258° (WSW) 04:22:44 437.345
STARS 24 Sep 04:31:11 04:33:56 16° 78° (ENE) 04:36:40 437.465
SRMSAT 24 Sep 04:34:26 04:40:24 88° 21° (NNE) 04:46:24 437.500
Tancredo 1 24 Sep 04:44:37 04:45:40 12° 234° (SW) 04:46:42 437.200
BEESAT 3 24 Sep 04:53:31 04:56:36 23° 68° (ENE) 04:59:38 437.485
JUGNU 24 Sep 05:01:34 05:05:22 18° 194° (SSW) 05:09:11 437.505
XW-2D 24 Sep 05:09:07 05:12:01 21° 101° (ESE) 05:14:55 145.860 - 145.880
ISS 24 Sep 05:13:30 05:16:44 63° 55° (NE) 05:19:59 437.550
XW-2F 24 Sep 05:20:54 05:24:09 29° 101° (E) 05:27:26 145.980 - 146.000
XW-2B 24 Sep 05:21:01 05:24:22 31° 101° (ESE) 05:27:43 145.730 - 145.750
AO-85 24 Sep 05:24:19 05:28:04 21° 69° (ENE) 05:31:58 145.980
XW-2C 24 Sep 05:41:58 05:45:43 76° 101° (E) 05:49:27 145.795 - 145.815
NUDT-PHONESAT 24 Sep 05:43:07 05:46:38 47° 101° (E) 05:50:12 437.300
KKS-1 24 Sep 05:44:04 05:46:24 14° 257° (WSW) 05:48:43 437.445
RS-15 24 Sep 05:45:55 05:51:41 15° 294° (WNW) 05:57:34 29.354- 29.394
DOVE 4 24 Sep 05:48:24 05:51:39 19° 280° (W) 05:55:03 437.250
CUTE-I 24 Sep 05:52:44 05:58:03 73° 102° (ESE) 06:03:25 437.470
nSIGHT-1 24 Sep 05:53:00 05:55:40 23° 234° (SW) 05:58:20 .
LilacSat-2 24 Sep 05:54:35 05:58:18 58° 282° (WNW) 06:02:01 437.200
STARS 24 Sep 06:06:46 06:09:59 20° 257° (WSW) 06:13:13 437.465
HO-68 24 Sep 06:10:03 06:16:24 35° 105° (ESE) 06:22:46 435.675
KAITUO 1B 24 Sep 06:11:58 06:15:32 48° 281° (W) 06:19:06 145.475/437.950
CUTE 1.7 + AOD 2 24 Sep 06:22:02 06:25:46 32° 101° (E) 06:29:32 437.475
SRMSAT 24 Sep 06:24:19 06:29:41 34° 199° (SSW) 06:35:05 437.500
BEESAT 3 24 Sep 06:33:04 06:33:52 11° 248° (WSW) 06:34:40 437.485
BEESAT 2 24 Sep 06:38:10 06:41:54 42° 249° (WSW) 06:45:35 435.950
XW-2D 24 Sep 06:45:13 06:45:55 10° 281° (WNW) 06:46:37 145.860 - 145.880
CUBEBUG 2 24 Sep 06:53:44 06:58:17 46° 102° (ESE) 07:02:47 437.445
JUGNU 24 Sep 06:54:40 06:55:20 10° 185° (S) 06:55:58 437.505
UWE-3 24 Sep 07:00:35 07:04:33 28° 101° (ESE) 07:08:27 435.000/436.395/437.385
AO-85 24 Sep 07:04:12 07:08:16 24° 247° (WSW) 07:12:30 145.980
XW-2A 24 Sep 07:25:59 07:29:20 69° 281° (W) 07:32:41 145.665 - 145.685
STRAND 1 24 Sep 07:27:12 07:32:09 53° 258° (WSW) 07:37:05 437.568
SEEDS 24 Sep 07:28:43 07:32:41 44° 281° (W) 07:36:38 437.485
Oscar 11 24 Sep 07:43:12 07:46:46 25° 102° (ESE) 07:50:19 .
AO-73 24 Sep 07:44:03 07:48:19 43° 101° (ESE) 07:52:30 145.935
FO-29 24 Sep 07:44:45 07:48:58 18° 80° (E) 07:52:52 435.910
ZACube-1 24 Sep 07:46:57 07:51:23 56° 101° (ESE) 07:55:44 437.345
AAUSAT CUBESAT 2 24 Sep 07:50:15 07:54:17 63° 281° (W) 07:58:21 437.432
HO-68 24 Sep 07:58:05 08:03:48 26° 285° (WNW) 08:09:33 435.675
SRMSAT 24 Sep 08:15:53 08:19:23 16° 193° (SSW) 08:22:55 437.500
UWE-3 24 Sep 08:38:20 08:40:41 14° 282° (WNW) 08:43:01 435.000/436.395/437.385
Max Valier Satellite 24 Sep 08:41:20 08:43:27 15° 101° (E) 08:45:35 145.860
JUGNU 24 Sep 08:44:12 08:45:33 11° 174° (S) 08:46:53 437.505
DELFI C3 24 Sep 09:15:08 09:19:02 86° 101° (ESE) 09:22:59 145.870
Oscar 11 24 Sep 09:20:44 09:22:37 13° 282° (WNW) 09:24:30 .
FO-29 24 Sep 09:27:48 09:33:53 37° 255° (WSW) 09:39:19 435.910
NO-84 24 Sep 09:37:30 09:41:46 56° 122° (ESE) 09:45:52 435.350 FM
UNISAT 6 24 Sep 09:39:21 09:43:36 75° 258° (WSW) 09:47:53 437.425
EO-88 24 Sep 09:39:28 09:43:05 82° 281° (W) 09:46:43 145.990 - 145.960
TIGRISAT 24 Sep 10:03:14 10:07:09 37° 258° (WSW) 10:11:06 435.000
SRMSAT 24 Sep 10:09:10 10:09:39 10° 183° (S) 10:10:06 437.500
Max Valier Satellite 24 Sep 10:14:51 10:17:00 15° 281° (WNW) 10:19:10 145.860
